PBO Station Position Time Series. Reference Frame : NAM14
Format Version,1.1.1
4-character ID,P348
Station name,HatchetMtnCN2005
Begin Date, 2005-09-29
End Date, 2023-06-26
Release Date, 2023-06-27
Reference position, 40.9055458592 North Latitude, -121.8280037724 East Longitude, 1668.06835 meters elevation,
Date, North (mm), East (mm), Vertical (mm), North Std. Deviation (mm), East Std. Deviation (mm),              Vertical Std. Deviation (mm), Quality,
2005-09-29,0.00, 0.00, 0.00, 2.19, 1.60, 7.25, repro,
2005-09-30,1.47, 0.64, 0.98, 2.13, 1.57, 7.16, repro,
2005-10-01,1.81, 2.04, 1.42, 2.11, 1.56, 7.15, repro,
2005-10-02,0.68, 0.55, -10.47, 2.15, 1.60, 7.32, repro,
2005-10-03,1.13, -0.09, -6.96, 2.12, 1.60, 7.25, repro,
2005-10-04,-1.32, -0.66, -6.10, 2.21, 1.66, 7.58, repro,
2005-10-05,-0.02, 0.53, -7.23, 2.21, 1.60, 7.43, repro,
2005-10-06,2.16, 0.28, -9.03, 2.14, 1.56, 7.14, repro,
2005-10-07,0.98, 0.28, -2.81, 2.13, 1.56, 7.16, repro,
2005-10-08,0.77, 0.04, 0.03, 2.11, 1.56, 7.13, repro,
2005-10-09,1.00, 0.43, -2.76, 2.10, 1.57, 7.12, repro,
2005-10-10,1.69, 2.73, 1.05, 2.13, 1.57, 7.16, repro,
2005-10-11,0.64, 0.74, -3.02, 2.17, 1.61, 7.35, repro,
2005-10-12,1.25, 0.13, -7.78, 2.15, 1.60, 7.27, repro,
2005-10-13,1.84, 0.00, -3.32, 2.15, 1.61, 7.32, repro,
2005-10-14,2.18, 0.94, -2.82, 2.13, 1.57, 7.15, repro,
2005-10-15,2.27, 0.16, -7.54, 2.24, 1.66, 7.64, repro,
2005-10-16,-2.47, -3.43, -5.58, 2.20, 1.58, 7.44, repro,
2005-10-17,1.62, 0.06, 0.54, 2.22, 1.65, 7.56, repro,
2005-10-18,1.59, 0.11, -1.24, 2.27, 1.72, 7.79, repro,
2005-10-19,1.65, 3.06, -7.66, 2.21, 1.64, 7.55, repro,
2005-10-20,1.14, 0.16, -10.68, 2.26, 1.63, 7.51, repro,
2005-10-21,0.69, 1.66, -1.06, 2.28, 1.69, 7.80, repro,
2005-10-22,0.84, 1.15, -3.79, 2.13, 1.57, 7.20, repro,
2005-10-23,1.37, 1.38, -2.06, 2.16, 1.61, 7.30, repro,
2005-10-24,2.27, 0.36, -3.99, 2.17, 1.62, 7.34, repro,
2005-10-25,2.77, 0.73, -6.73, 2.17, 1.62, 7.34, repro,
2005-10-26,1.88, 1.55, -6.44, 2.21, 1.69, 7.58, repro,
2005-10-27,-0.43, 1.86, -7.01, 2.16, 1.61, 7.33, repro,
2005-10-28,3.17, 3.78, -12.16, 2.12, 1.56, 7.11, repro,
2005-10-29,2.00, 2.68, -9.83, 2.14, 1.61, 7.34, repro,
2005-10-30,1.39, 1.16, -9.10, 2.12, 1.57, 7.15, repro,
2005-10-31,1.55, 0.52, -8.88, 2.28, 1.71, 7.75, repro,
2005-11-01,2.27, 1.02, -8.04, 2.33, 1.78, 7.93, repro,
2005-11-02,1.91, 2.45, -7.14, 2.22, 1.70, 7.56, repro,
2005-11-03,2.46, 1.94, -6.20, 2.17, 1.63, 7.28, repro,
2005-11-04,1.39, 2.04, -2.92, 2.26, 1.72, 7.67, repro,
2005-11-05,2.09, 2.88, -8.76, 2.27, 1.77, 7.78, repro,
2005-11-06,1.70, 3.85, -7.73, 2.27, 1.77, 7.77, repro,
2005-11-07,2.66, 2.94, -8.40, 2.26, 1.75, 7.70, repro,
2005-11-08,3.61, -2.52, -5.12, 2.23, 1.74, 7.63, repro,
2005-11-09,8.12, -5.25, -1.76, 2.23, 1.73, 7.68, repro,
2005-11-10,0.95, 0.73, -12.06, 2.42, 1.83, 8.18, repro,
2005-11-11,1.71, 0.26, -7.99, 2.38, 1.77, 7.98, repro,
2005-11-12,1.55, 1.11, -7.61, 2.11, 1.62, 7.18, repro,
2005-11-13,1.19, 1.62, -13.45, 2.29, 1.76, 7.77, repro,
2005-11-14,2.78, 2.71, -15.40, 2.19, 1.67, 7.46, repro,
2005-11-15,1.41, -1.45, -18.32, 2.13, 1.57, 7.20, repro,
2005-11-16,2.70, 0.48, -20.15, 2.20, 1.66, 7.50, repro,
2005-11-17,1.60, 0.02, -18.85, 2.13, 1.59, 7.24, repro,
2005-11-18,1.88, 1.43, -15.63, 2.12, 1.56, 7.15, repro,
2005-11-19,1.86, 1.03, -14.68, 2.13, 1.58, 7.24, repro,
2005-11-20,1.27, 0.39, -12.02, 2.16, 1.61, 7.36, repro,
2005-11-21,1.86, 0.99, -11.69, 2.27, 1.71, 7.84, repro,
2005-11-22,0.39, 1.28, -13.51, 2.21, 1.68, 7.55, repro,
2005-11-23,1.84, 0.90, -8.87, 2.19, 1.64, 7.46, repro,
2005-11-24,1.24, 1.54, -7.13, 2.15, 1.62, 7.36, repro,
2005-11-25,0.24, 2.13, -4.68, 2.16, 1.63, 7.39, repro,
2005-11-26,1.31, 1.73, -5.73, 2.23, 1.70, 7.66, repro,
2005-11-27,1.00, 0.63, -8.46, 2.16, 1.65, 7.45, repro,
2005-11-28,1.51, 1.35, -13.52, 2.21, 1.67, 7.61, repro,
2005-11-29,-2.03, 6.41, -6.84, 2.22, 1.63, 7.46, repro,
2005-11-30,-6.26, 16.55, -13.18, 2.18, 1.65, 7.42, repro,
2005-12-01,0.73, 18.55, -1.92, 2.16, 1.63, 7.34, repro,
2005-12-02,0.95, 1.48, -14.40, 2.13, 1.60, 7.23, repro,
2005-12-03,1.66, 1.07, -14.84, 2.13, 1.59, 7.22, repro,
2005-12-04,1.10, 0.86, -18.20, 2.13, 1.59, 7.20, repro,
2005-12-05,1.36, 1.85, -17.49, 2.14, 1.59, 7.18, repro,
2005-12-06,0.50, 1.80, -16.89, 2.19, 1.60, 7.36, repro,
2005-12-07,1.81, 1.86, -14.61, 2.16, 1.63, 7.38, repro,
2005-12-08,0.31, 1.43, -16.51, 2.17, 1.64, 7.36, repro,
2005-12-09,0.85, 1.20, -17.65, 2.14, 1.59, 7.20, repro,
2005-12-10,2.36, 1.74, -12.01, 2.14, 1.59, 7.21, repro,
2005-12-11,1.36, 1.25, -13.09, 2.12, 1.57, 7.20, repro,
2005-12-12,1.81, 1.44, -11.17, 2.10, 1.56, 7.12, repro,
2005-12-13,1.93, 1.50, -14.16, 2.15, 1.60, 7.33, repro,
2005-12-14,1.70, 0.71, -19.44, 2.12, 1.58, 7.16, repro,
2005-12-15,1.53, 1.20, -16.52, 2.18, 1.61, 7.33, repro,
2005-12-16,0.58, 1.23, -8.32, 2.12, 1.56, 7.16, repro,
2005-12-17,1.38, 0.62, -9.49, 2.20, 1.67, 7.41, repro,
2005-12-18,1.19, 2.94, -14.70, 2.19, 1.66, 7.42, repro,
2005-12-19,1.77, 2.68, -25.70, 2.23, 1.71, 7.40, repro,
2005-12-20,1.82, 1.46, -21.76, 2.20, 1.73, 7.45, repro,
2005-12-21,0.42, 3.29, -21.01, 2.17, 1.69, 7.36, repro,
2005-12-22,3.25, 2.90, -18.18, 2.16, 1.70, 7.37, repro,
2005-12-23,1.21, 3.09, -22.04, 2.23, 1.71, 7.51, repro,
2005-12-24,0.87, 1.67, -19.01, 2.35, 1.83, 8.03, repro,
2005-12-25,-0.18, 2.35, -13.38, 2.17, 1.66, 7.31, repro,
2005-12-26,0.76, 2.42, -12.02, 2.16, 1.59, 7.13, repro,
2005-12-27,0.13, 3.79, -23.45, 2.21, 1.70, 7.50, repro,
2005-12-28,0.37, 5.23, -22.57, 2.19, 1.66, 7.31, repro,
2005-12-29,0.10, 1.83, -15.38, 2.41, 1.86, 8.37, repro,
2005-12-30,-0.54, 6.58, -16.76, 2.28, 1.76, 7.74, repro,
2005-12-31,0.72, 1.23, -3.85, 2.34, 1.87, 8.17, repro,
2006-01-01,1.81, 0.54, -16.87, 2.21, 1.68, 7.42, repro,
2006-01-02,0.26, 3.27, -15.00, 2.15, 1.62, 7.19, repro,
2006-01-03,0.27, 1.21, -16.36, 2.44, 2.01, 8.50, repro,
2006-01-04,2.04, 1.54, -28.44, 2.38, 1.91, 8.19, repro,
2006-01-05,1.51, 0.26, -29.18, 2.22, 1.73, 7.55, repro,
2006-01-06,0.31, 0.53, -18.88, 2.30, 1.79, 7.92, repro,
2006-01-07,1.15, 1.71, -15.14, 2.23, 1.71, 7.58, repro,
2006-01-08,0.19, 2.10, -16.44, 2.31, 1.85, 8.03, repro,
2006-01-09,0.41, 0.78, -17.71, 2.27, 1.79, 7.86, repro,
2006-01-10,1.73, 3.03, -24.74, 2.29, 1.77, 7.78, repro,
2006-01-11,-2.81, 5.78, -13.71, 2.28, 1.76, 7.69, repro,
2006-01-12,2.00, 0.45, -19.25, 2.21, 1.71, 7.34, repro,
2006-01-13,1.23, 2.34, -20.43, 2.30, 1.79, 7.97, repro,
2006-01-14,0.77, 3.12, -15.79, 2.17, 1.67, 7.37, repro,
2006-01-15,0.78, 2.44, -15.16, 2.23, 1.66, 7.46, repro,
2006-01-16,1.65, 0.57, -23.89, 2.26, 1.78, 7.59, repro,
2006-01-17,0.37, 8.05, -21.24, 2.20, 1.65, 7.33, repro,
2006-01-18,-3.72, 18.44, -12.68, 2.17, 1.63, 7.23, repro,
2006-01-19,-0.08, 17.71, -19.98, 2.21, 1.64, 7.46, repro,
2006-01-20,-1.87, 14.15, -21.34, 2.22, 1.63, 7.55, repro,
2006-01-21,0.59, 14.96, -15.86, 2.16, 1.59, 7.22, repro,
2006-01-22,0.34, 11.78, -15.49, 2.18, 1.58, 7.24, repro,
2006-01-23,2.81, 5.99, -21.24, 2.16, 1.57, 7.17, repro,
2006-01-24,0.36, 0.28, -18.31, 2.18, 1.62, 7.38, repro,
2006-01-25,-0.52, 1.74, -13.23, 2.08, 1.55, 7.03, repro,
2006-01-26,0.66, 2.24, -16.46, 2.09, 1.56, 7.06, repro,
2006-01-27,3.62, 3.97, -26.84, 2.08, 1.53, 6.98, repro,
2006-01-28,7.16, 4.84, -28.12, 2.09, 1.53, 6.97, repro,
2006-01-29,1.50, 12.97, -21.11, 2.12, 1.56, 7.16, repro,
2006-01-30,3.10, 7.48, -30.13, 2.12, 1.57, 7.19, repro,
2006-01-31,1.75, -0.24, -24.90, 2.09, 1.55, 7.09, repro,
2006-02-01,1.34, 2.07, -24.90, 2.15, 1.59, 7.25, repro,
2006-02-02,-0.59, 5.66, -26.21, 2.10, 1.53, 7.09, repro,
2006-02-03,2.06, 2.59, -29.88, 2.13, 1.55, 7.21, repro,
2006-02-04,2.44, 1.11, -23.02, 2.20, 1.61, 7.44, repro,
2006-02-05,1.79, 1.03, -27.37, 2.16, 1.61, 7.35, repro,
2006-02-06,1.30, 1.33, -28.36, 2.11, 1.55, 7.18, repro,
2006-02-07,1.85, 0.51, -32.26, 2.11, 1.53, 7.14, repro,
2006-02-08,2.09, 0.70, -34.75, 2.12, 1.53, 7.15, repro,
2006-02-09,1.24, 1.35, -26.37, 2.26, 1.60, 7.59, repro,
2006-02-10,0.91, 0.50, -28.73, 2.27, 1.58, 7.46, repro,
2006-02-11,-0.02, 0.78, -24.74, 2.18, 1.59, 7.40, repro,
2006-02-12,-0.98, 2.05, -24.42, 2.11, 1.53, 7.18, repro,
2006-02-13,-0.35, 0.70, -20.99, 2.19, 1.56, 7.38, repro,
2006-02-14,0.32, 0.09, -16.47, 2.17, 1.57, 7.35, repro,
2006-02-15,-0.93, -0.55, -13.87, 2.12, 1.54, 7.16, repro,
2006-02-16,-0.98, 1.33, -18.47, 2.19, 1.60, 7.47, repro,
2006-02-17,-0.76, 1.95, -16.17, 2.17, 1.56, 7.29, repro,
2006-02-18,0.69, 0.95, -30.59, 2.10, 1.53, 7.08, repro,
2006-02-19,2.43, 0.89, -31.03, 2.21, 1.60, 7.44, repro,
2006-02-20,2.45, 0.44, -32.22, 2.21, 1.59, 7.43, repro,
2006-02-21,2.30, 0.88, -31.13, 2.17, 1.58, 7.31, repro,
2006-02-22,1.08, 1.31, -16.51, 2.27, 1.63, 7.64, repro,
2006-02-23,0.48, 3.50, -14.42, 2.63, 1.80, 8.74, repro,
2006-02-24,0.22, 3.75, -13.63, 2.18, 1.58, 7.38, repro,
2006-02-25,1.14, 3.31, -21.84, 2.18, 1.58, 7.38, repro,
2006-02-26,0.48, 1.67, -17.59, 2.18, 1.59, 7.38, repro,
2006-02-27,-1.59, 8.52, -17.20, 2.13, 1.56, 7.28, repro,
2006-02-28,0.34, 3.74, -9.51, 2.21, 1.62, 7.53, repro,
2006-03-01,0.81, 4.52, -18.04, 2.22, 1.62, 7.55, repro,
2006-03-02,2.36, 2.04, -27.21, 2.12, 1.54, 7.17, repro,
2006-03-03,3.68, 0.72, -27.28, 2.19, 1.57, 7.38, repro,
2006-03-04,1.41, 1.47, -19.97, 2.11, 1.57, 7.20, repro,
2006-03-05,0.70, 1.76, -32.13, 2.09, 1.56, 7.18, repro,
2006-03-06,1.75, 3.53, -26.30, 2.08, 1.54, 7.08, repro,
2006-03-07,-1.22, 11.61, 14.87, 2.12, 1.56, 7.25, repro,
2006-03-08,-1.63, 11.23, 23.34, 2.11, 1.55, 7.21, repro,
2006-03-09,-0.55, 8.61, 35.74, 2.12, 1.57, 7.28, repro,
2006-03-10,0.89, 8.23, 27.42, 2.09, 1.55, 7.12, repro,
2006-03-11,-2.14, 6.51, 28.79, 2.14, 1.57, 7.25, repro,
2006-03-12,-2.63, 6.74, 23.08, 2.13, 1.56, 7.26, repro,
2006-03-13,-1.04, 8.53, 37.78, 2.16, 1.56, 7.29, repro,
2006-03-14,-3.59, 13.22, 68.06, 2.20, 1.59, 7.53, repro,
2006-03-15,-1.81, 15.78, 87.50, 2.16, 1.59, 7.39, repro,
2006-03-16,-1.01, 13.18, 91.47, 2.24, 1.63, 7.63, repro,
2006-03-17,-14.11, 17.95, 155.71, 2.24, 1.64, 7.62, repro,
2006-03-18,-17.39, 16.30, 157.17, 2.16, 1.60, 7.37, repro,
2006-03-19,-17.17, 16.62, 139.08, 2.16, 1.61, 7.34, repro,
2006-03-20,-13.55, 15.41, 137.01, 2.15, 1.62, 7.38, repro,
2006-03-21,-11.67, 17.53, 140.21, 2.14, 1.60, 7.29, repro,
2006-03-22,-15.72, 21.05, 143.56, 2.16, 1.63, 7.46, repro,
2006-03-23,-13.17, 24.53, 156.30, 2.30, 1.69, 7.85, repro,
2006-03-24,-8.93, 25.33, 175.13, 2.51, 1.84, 8.69, repro,
2006-05-13,4.57, 1.72, -29.12, 6.13, 4.36, 20.72, repro,
2006-05-14,1.36, 0.99, -27.71, 2.04, 1.55, 7.12, repro,
2006-05-15,2.68, 1.52, -37.17, 2.06, 1.56, 7.21, repro,
2006-05-16,0.44, 2.30, -24.22, 2.10, 1.61, 7.46, repro,
2006-05-17,-0.71, 2.76, -14.09, 2.09, 1.61, 7.46, repro,
2006-05-18,1.58, 2.25, -18.17, 2.06, 1.57, 7.22, repro,
2006-05-19,0.66, 1.58, -20.21, 2.18, 1.62, 7.49, repro,
2006-05-20,-0.40, 2.76, -3.86, 2.14, 1.58, 7.28, repro,
2006-05-21,1.79, 2.53, -14.43, 2.14, 1.58, 7.30, repro,
2006-05-22,1.89, 2.74, -12.99, 2.13, 1.58, 7.28, repro,
2006-05-23,1.92, 3.28, -31.96, 2.11, 1.59, 7.27, repro,
2006-05-24,0.85, 1.77, -25.26, 2.10, 1.57, 7.21, repro,
2006-05-25,-0.21, 2.38, -21.67, 2.23, 1.64, 7.62, repro,
2006-05-26,-0.48, 2.20, -22.94, 2.18, 1.62, 7.53, repro,
2006-05-27,-0.50, 0.51, -14.78, 2.15, 1.59, 7.38, repro,
2006-05-28,-0.37, 0.50, -17.75, 2.14, 1.60, 7.41, repro,
2006-05-29,0.68, 0.21, -19.89, 2.11, 1.59, 7.29, repro,
2006-05-30,-0.42, 0.55, -19.22, 2.16, 1.61, 7.40, repro,
2006-05-31,-0.76, 0.57, -18.18, 2.16, 1.60, 7.40, repro,
2006-06-01,1.22, 1.17, -19.79, 2.19, 1.61, 7.47, repro,
2006-06-02,-1.95, 0.72, -22.50, 2.29, 1.69, 7.89, repro,
2006-06-03,0.27, 0.34, -15.25, 2.21, 1.63, 7.62, repro,
2006-06-04,1.03, 2.49, -14.17, 2.15, 1.60, 7.38, repro,
2006-06-05,-0.82, 0.24, -13.24, 2.17, 1.61, 7.43, repro,
2006-06-06,-1.71, 0.60, -15.06, 2.20, 1.61, 7.51, repro,
2006-06-07,-0.09, -0.47, -19.34, 2.19, 1.63, 7.56, repro,
2006-06-08,-0.94, -0.16, -21.57, 2.12, 1.59, 7.32, repro,
2006-06-09,0.24, 0.07, -18.56, 2.11, 1.58, 7.24, repro,
2006-06-10,0.36, 1.58, -18.12, 2.09, 1.57, 7.16, repro,
2006-06-11,-0.64, 1.21, -15.05, 2.16, 1.62, 7.43, repro,
2006-06-12,0.65, 1.29, -20.02, 2.22, 1.67, 7.65, repro,
2006-06-13,0.22, 1.17, -18.16, 2.19, 1.62, 7.50, repro,
2006-06-14,0.61, 0.61, -16.71, 2.11, 1.59, 7.32, repro,
2006-06-15,-0.50, -0.29, -16.65, 2.11, 1.59, 7.28, repro,
2006-06-16,-0.77, 0.61, -16.33, 2.10, 1.57, 7.19, repro,
2006-06-17,0.49, 1.23, -17.80, 2.10, 1.58, 7.24, repro,
2006-06-18,-1.73, 1.67, -10.23, 2.14, 1.63, 7.51, repro,
2006-06-19,0.60, 0.75, -16.94, 2.14, 1.63, 7.55, repro,
2006-06-20,0.63, 1.11, -16.99, 2.15, 1.63, 7.52, repro,
2006-06-21,-1.07, -0.02, -15.07, 2.15, 1.63, 7.54, repro,
2006-06-22,-0.50, 0.85, -18.04, 2.11, 1.61, 7.39, repro,
2006-06-23,0.29, 0.64, -20.73, 2.13, 1.63, 7.48, repro,
2006-06-24,-0.79, 0.50, -17.41, 2.15, 1.64, 7.57, repro,
2006-06-25,0.31, 1.40, -23.78, 2.14, 1.64, 7.55, repro,
2006-06-26,-0.33, 0.94, -18.79, 2.15, 1.65, 7.61, repro,
2006-06-27,-0.23, 0.58, -10.95, 2.20, 1.71, 7.72, repro,
2006-06-28,-1.00, 0.37, -13.12, 2.13, 1.62, 7.47, repro,
2006-06-29,-0.51, 1.20, -15.53, 2.07, 1.60, 7.39, repro,
2006-06-30,0.63, 2.10, -16.27, 2.10, 1.59, 7.39, repro,
2006-07-01,0.15, 2.26, -15.00, 2.11, 1.60, 7.40, repro,
2006-07-02,0.35, 1.25, -17.71, 2.16, 1.69, 7.74, repro,
2006-07-03,0.45, 1.51, -19.73, 2.09, 1.58, 7.32, repro,
2006-07-04,0.14, 1.38, -13.77, 2.09, 1.57, 7.29, repro,
2006-07-05,0.05, 2.05, -14.64, 2.09, 1.59, 7.36, repro,
2006-07-06,1.08, 2.35, -24.18, 2.10, 1.60, 7.40, repro,
2006-07-07,0.04, 1.87, -21.58, 2.13, 1.61, 7.49, repro,
2006-07-08,-0.54, 2.35, -13.25, 2.12, 1.58, 7.38, repro,
2006-07-09,0.20, 0.78, -15.64, 2.09, 1.57, 7.31, repro,
2006-07-10,0.82, 2.48, -16.85, 2.09, 1.58, 7.35, repro,
2006-07-11,0.49, 3.20, -15.03, 2.10, 1.60, 7.44, repro,
2006-07-12,0.66, 3.09, -15.28, 2.11, 1.60, 7.49, repro,
2006-07-13,0.29, 2.30, -16.67, 2.11, 1.59, 7.42, repro,
2006-07-14,0.11, 1.38, -9.22, 2.11, 1.58, 7.42, repro,
2006-07-15,1.34, 1.79, -20.34, 2.09, 1.58, 7.38, repro,
2006-07-16,0.13, 2.32, -14.34, 2.09, 1.59, 7.41, repro,
2006-07-17,0.67, 1.73, -15.44, 2.13, 1.64, 7.69, repro,
2006-07-18,-0.54, 2.35, -5.92, 2.06, 1.57, 7.25, repro,
2006-07-19,0.94, 2.38, -14.79, 2.09, 1.61, 7.35, repro,
2006-07-20,1.38, 1.04, -18.15, 2.04, 1.55, 7.12, repro,
2006-07-21,-0.53, 3.31, -15.40, 2.02, 1.56, 7.15, repro,
2006-07-22,1.53, 2.95, -6.99, 2.03, 1.57, 7.20, repro,
2006-07-23,1.15, 4.43, -9.23, 2.05, 1.57, 7.21, repro,
2006-07-24,1.54, -0.10, -7.84, 2.04, 1.56, 7.15, repro,
2006-07-25,-0.26, 2.40, -13.16, 2.07, 1.59, 7.37, repro,
2006-07-26,-0.18, 1.54, -8.33, 2.03, 1.55, 7.11, repro,
2006-07-27,0.28, 2.69, -11.53, 2.03, 1.56, 7.14, repro,
2006-07-28,1.44, 3.17, -2.53, 2.05, 1.56, 7.19, repro,
2006-07-29,3.72, 3.91, -13.30, 2.09, 1.61, 7.30, repro,
2006-07-30,2.04, 0.83, -10.40, 2.09, 1.61, 7.30, repro,
2006-07-31,1.03, 2.95, -12.46, 2.03, 1.55, 7.15, repro,
2006-08-01,0.58, 2.74, -8.78, 2.03, 1.57, 7.20, repro,
2006-08-02,0.89, 3.23, -8.93, 2.10, 1.66, 7.60, repro,
2006-08-03,1.04, 2.41, -8.83, 2.12, 1.67, 7.66, repro,
2006-08-04,1.06, 1.68, -11.15, 2.14, 1.64, 7.61, repro,
2006-08-05,1.30, 1.85, -15.47, 2.12, 1.65, 7.59, repro,
2006-08-06,-0.02, 1.86, -12.10, 2.06, 1.60, 7.43, repro,
2006-08-07,1.40, 3.06, -7.14, 2.12, 1.67, 7.65, repro,
2006-08-08,1.21, 3.65, -10.82, 2.04, 1.56, 7.21, repro,
2006-08-09,1.84, 2.66, -15.53, 2.10, 1.63, 7.40, repro,
2006-08-10,0.93, 3.16, -13.71, 2.05, 1.56, 7.19, repro,
2006-08-11,0.27, 3.58, -3.04, 2.03, 1.56, 7.17, repro,
2006-08-12,0.73, 2.65, -8.92, 2.02, 1.56, 7.17, repro,
2006-08-13,0.55, 2.67, -6.27, 2.09, 1.62, 7.38, repro,
2006-08-14,0.75, 2.96, -4.93, 2.09, 1.62, 7.38, repro,
2006-08-15,0.67, 2.01, -2.96, 2.18, 1.64, 7.47, repro,
2006-08-16,1.43, 3.17, -8.95, 2.08, 1.61, 7.32, repro,
2006-08-17,1.08, 2.69, -14.17, 2.08, 1.62, 7.35, repro,
2006-08-18,0.07, 2.09, -8.79, 2.12, 1.66, 7.50, repro,
2006-08-19,0.15, 2.80, -11.16, 2.04, 1.56, 7.20, repro,
2006-08-20,0.51, 2.34, -3.26, 2.03, 1.56, 7.15, repro,
2006-08-21,2.96, 3.55, -12.63, 2.05, 1.58, 7.22, repro,
2006-08-22,1.63, 3.08, -11.13, 2.03, 1.58, 7.17, repro,
2006-08-23,1.20, 2.49, -2.80, 2.04, 1.59, 7.25, repro,
2006-08-24,1.13, 2.09, -2.50, 2.05, 1.59, 7.28, repro,
2006-08-25,0.87, 1.77, 1.19, 2.09, 1.63, 7.59, repro,
2006-08-26,0.78, 2.39, -6.39, 2.11, 1.65, 7.62, repro,
2006-08-27,1.07, 2.45, -9.30, 2.10, 1.66, 7.55, repro,
2006-08-28,1.14, 2.70, -8.08, 2.10, 1.68, 7.62, repro,
2006-08-29,3.75, 3.82, -13.20, 2.12, 1.68, 7.69, repro,
2006-08-30,2.20, 1.94, -7.12, 2.12, 1.69, 7.71, repro,
2006-08-31,1.74, 2.58, -8.26, 2.12, 1.68, 7.69, repro,
2006-09-01,1.71, 2.01, -11.84, 2.10, 1.67, 7.59, repro,
2006-09-02,0.47, 2.57, -6.26, 2.09, 1.67, 7.57, repro,
2006-09-03,0.74, 3.56, -12.35, 2.11, 1.68, 7.66, repro,
2006-09-04,3.91, 3.63, -17.82, 2.21, 1.72, 7.97, repro,
2006-09-05,0.96, 3.39, -14.61, 2.20, 1.71, 7.89, repro,
2006-09-06,1.91, 2.12, -11.11, 2.10, 1.66, 7.58, repro,
2006-09-07,0.70, 2.18, -2.83, 2.14, 1.70, 7.78, repro,
2006-09-08,1.31, 3.28, -5.78, 2.16, 1.73, 7.93, repro,
2006-09-09,0.65, 2.75, -9.59, 2.10, 1.64, 7.48, repro,
2006-09-10,1.90, 2.62, -8.23, 2.10, 1.65, 7.50, repro,
2006-09-11,2.73, 2.60, -9.09, 2.07, 1.63, 7.37, repro,
2006-09-12,1.73, 2.61, -6.84, 2.07, 1.62, 7.34, repro,
2006-09-13,1.24, 2.81, -1.51, 2.08, 1.63, 7.38, repro,
2006-09-14,2.42, 3.30, -9.65, 2.20, 1.73, 7.72, repro,
2006-09-15,2.06, 3.31, -6.56, 2.14, 1.62, 7.48, repro,
2006-09-16,2.08, 2.02, -5.59, 2.05, 1.59, 7.25, repro,
2006-09-17,1.12, 3.17, -3.24, 2.04, 1.57, 7.17, repro,
2006-09-18,2.16, 2.98, -4.67, 2.04, 1.59, 7.20, repro,
2006-09-19,1.34, 3.54, -1.91, 2.05, 1.59, 7.26, repro,
2006-09-20,1.60, 2.00, -2.71, 2.06, 1.60, 7.31, repro,
2006-09-21,-0.52, 0.76, 1.01, 2.09, 1.63, 7.43, repro,
2006-09-22,0.26, -0.97, 0.05, 2.13, 1.66, 7.51, repro,
2006-09-23,-0.75, 0.26, -3.16, 2.10, 1.62, 7.38, repro,
2006-09-24,1.60, 2.85, -7.89, 2.16, 1.65, 7.46, repro,
2006-09-25,2.47, 2.98, -7.38, 2.17, 1.65, 7.59, repro,
2006-09-26,1.80, 2.41, -8.42, 2.10, 1.61, 7.34, repro,
2006-09-27,2.30, 1.59, -8.44, 2.14, 1.63, 7.40, repro,
2006-09-28,0.74, 1.83, -3.58, 2.15, 1.66, 7.46, repro,
2006-09-29,1.41, 2.50, -1.01, 2.11, 1.62, 7.30, repro,
2006-09-30,1.26, 3.11, 3.08, 2.11, 1.65, 7.56, repro,
2006-10-01,1.70, 2.10, -3.34, 2.07, 1.62, 7.33, repro,
2006-10-02,1.76, 1.63, -2.10, 2.14, 1.68, 7.53, repro,
2006-10-03,1.50, 3.01, -9.09, 2.23, 1.73, 7.74, repro,
2006-10-04,1.10, 2.61, -4.02, 2.08, 1.60, 7.30, repro,
2006-10-05,0.28, 2.34, -0.96, 2.06, 1.60, 7.27, repro,
2006-10-06,-0.17, 1.85, -9.53, 2.06, 1.61, 7.30, repro,
2006-10-07,2.20, 2.91, -12.80, 2.18, 1.70, 7.80, repro,
2006-10-08,0.75, 2.11, -4.58, 2.11, 1.65, 7.45, repro,
2006-10-09,-1.68, 0.68, -4.12, 2.11, 1.65, 7.50, repro,
2006-10-10,0.77, 0.79, -3.92, 2.07, 1.60, 7.24, repro,
2006-10-11,-0.32, 2.43, -3.08, 2.10, 1.65, 7.53, repro,
2006-10-12,-0.18, 0.97, -6.83, 2.07, 1.62, 7.34, repro,
2006-10-13,1.03, 2.17, 1.55, 2.10, 1.61, 7.36, repro,
2006-10-14,1.25, 1.96, -1.06, 2.06, 1.63, 7.38, repro,
2006-10-15,1.41, 3.12, 3.38, 2.06, 1.62, 7.37, repro,
2006-10-16,2.62, 4.87, 4.68, 2.03, 1.60, 7.26, repro,
2006-10-17,0.24, 1.48, -5.50, 2.09, 1.66, 7.67, repro,
2006-10-18,0.62, 2.63, -3.45, 2.03, 1.61, 7.31, repro,
2006-10-19,1.06, 2.80, 2.15, 2.25, 1.69, 7.96, repro,
2006-10-20,-1.00, 0.84, -1.09, 2.33, 1.84, 8.75, repro,
2006-10-21,-1.06, 3.51, -3.46, 2.21, 1.71, 7.90, repro,
2006-10-22,0.61, 3.94, -13.58, 2.08, 1.67, 7.58, repro,
2006-10-23,1.24, 3.68, -11.87, 2.17, 1.72, 7.84, repro,
2006-10-24,0.82, 2.61, -2.72, 2.26, 1.71, 8.02, repro,
2006-10-25,0.13, 1.59, -3.59, 2.25, 1.71, 7.98, repro,
2006-10-26,0.50, 2.78, -9.91, 2.13, 1.72, 7.78, repro,
2006-10-27,1.40, 3.82, -13.12, 2.10, 1.70, 7.60, repro,
2006-10-28,1.34, 4.08, -10.44, 2.20, 1.72, 7.97, repro,
2006-10-29,1.71, 3.39, -3.92, 2.10, 1.67, 7.61, repro,
2006-10-30,1.89, 3.81, -4.42, 2.07, 1.65, 7.42, repro,
2006-10-31,1.68, 2.96, -3.67, 2.05, 1.62, 7.39, repro,
2006-11-01,0.57, 3.41, -5.04, 2.06, 1.65, 7.47, repro,
2006-11-02,1.82, 4.34, -6.64, 2.05, 1.63, 7.44, repro,
2006-11-03,3.64, 4.94, -8.22, 2.09, 1.67, 7.60, repro,
2006-11-04,1.97, 3.62, -12.63, 2.13, 1.67, 7.61, repro,
2006-11-05,0.33, 0.58, 0.86, 2.15, 1.70, 7.78, repro,
2006-11-06,0.15, 3.53, -11.98, 2.02, 1.59, 7.24, repro,
2006-11-07,3.64, 4.19, -12.49, 2.18, 1.73, 7.80, repro,
2006-11-08,4.08, 5.17, -9.33, 2.25, 1.75, 8.08, repro,
2006-11-09,3.55, 3.74, -5.17, 2.21, 1.75, 7.90, repro,
2006-11-10,1.75, 2.58, -6.64, 2.10, 1.61, 7.39, repro,
2006-11-11,1.12, 4.21, -3.26, 2.13, 1.65, 7.52, repro,
2006-11-12,0.09, 2.58, -6.32, 2.20, 1.73, 7.77, repro,
2006-11-13,3.24, 5.00, -5.60, 2.17, 1.69, 7.63, repro,
2006-11-14,1.88, 3.06, -4.64, 2.05, 1.60, 7.31, repro,
2006-11-15,1.56, 2.64, -10.66, 2.02, 1.59, 7.21, repro,
2006-11-16,0.63, 4.16, -5.12, 2.01, 1.58, 7.14, repro,
2006-11-17,2.33, 4.00, -6.96, 2.02, 1.58, 7.15, repro,
2006-11-18,1.37, 3.41, -12.75, 2.02, 1.59, 7.20, repro,
2006-11-19,0.94, 1.92, -14.43, 2.02, 1.60, 7.22, repro,
2006-11-20,2.65, 2.95, -14.50, 2.02, 1.59, 7.20, repro,
2006-11-21,0.45, 1.28, -7.59, 2.01, 1.58, 7.12, repro,
2006-11-22,2.07, 1.93, -7.55, 2.01, 1.58, 7.10, repro,
2006-11-23,1.14, 3.39, -15.34, 2.04, 1.63, 7.39, repro,
2006-11-24,0.98, 1.82, -12.46, 2.10, 1.68, 7.64, repro,
2006-11-25,1.97, 1.86, -12.09, 2.06, 1.62, 7.33, repro,
2006-11-26,0.91, 2.65, -11.26, 2.04, 1.60, 7.22, repro,
2006-11-27,1.17, 6.81, -9.82, 2.04, 1.60, 7.20, repro,
2006-11-28,0.86, 8.27, -7.68, 2.02, 1.59, 7.17, repro,
2006-11-29,2.34, 8.34, -11.48, 2.01, 1.60, 7.20, repro,
2006-11-30,1.81, 4.43, -17.21, 2.02, 1.60, 7.22, repro,
2006-12-01,2.04, 2.47, -23.52, 2.03, 1.61, 7.25, repro,
2006-12-02,1.67, 3.13, -17.39, 2.01, 1.59, 7.13, repro,
2006-12-03,0.78, 3.33, -14.10, 2.01, 1.60, 7.15, repro,
2006-12-04,1.18, 2.79, -18.29, 2.06, 1.62, 7.31, repro,
2006-12-05,1.20, 2.45, -14.40, 2.04, 1.66, 7.37, repro,
2006-12-06,1.54, 1.69, -16.42, 2.10, 1.73, 7.63, repro,
2006-12-07,0.55, 2.49, -10.61, 2.05, 1.66, 7.35, repro,
2006-12-08,2.22, 2.44, -10.23, 2.04, 1.66, 7.36, repro,
2006-12-09,1.55, 4.00, -9.24, 2.13, 1.76, 7.65, repro,
2006-12-10,3.37, 5.53, -0.22, 2.08, 1.68, 7.44, repro,
2006-12-11,4.53, 10.01, -12.60, 2.02, 1.62, 7.24, repro,
2006-12-12,4.75, 22.21, -23.65, 2.09, 1.70, 7.52, repro,
2006-12-13,3.78, 4.68, -28.44, 2.04, 1.68, 7.46, repro,
2006-12-14,2.23, 5.02, -12.49, 2.01, 1.63, 7.29, repro,
2006-12-15,0.77, 1.96, -12.29, 2.11, 1.73, 7.69, repro,
2006-12-16,1.16, 0.67, -13.80, 2.12, 1.74, 7.52, repro,
2006-12-17,1.38, 1.25, -12.51, 2.10, 1.77, 7.81, repro,
2006-12-18,0.47, 3.34, -15.37, 2.32, 1.89, 8.57, repro,
2006-12-19,1.40, 2.47, -14.76, 2.20, 1.91, 8.39, repro,
2006-12-20,0.10, 2.51, -11.90, 2.17, 1.83, 7.92, repro,
2006-12-21,-1.00, 5.13, -14.97, 2.02, 1.72, 7.44, repro,
2006-12-22,-3.27, 9.76, -12.29, 2.14, 1.85, 8.07, repro,
2006-12-23,-0.20, 3.78, -17.58, 2.10, 1.79, 7.82, repro,
2006-12-24,1.46, 2.41, -18.38, 2.02, 1.62, 7.25, repro,
2006-12-25,2.07, 4.07, -29.16, 2.06, 1.72, 7.46, repro,
2006-12-26,2.99, 3.98, -23.57, 2.09, 1.72, 7.70, repro,
2006-12-27,2.63, 0.87, -13.94, 2.10, 1.74, 7.77, repro,
2006-12-28,0.03, -0.67, -13.47, 2.32, 2.02, 8.81, repro,
2006-12-29,1.85, 1.18, -29.94, 2.13, 1.76, 7.70, repro,
2006-12-30,1.22, 1.44, -15.75, 2.07, 1.70, 7.52, repro,
2006-12-31,2.44, 3.04, -15.75, 2.29, 1.95, 8.61, repro,
2007-01-01,1.06, 2.12, -16.29, 2.17, 1.84, 8.13, repro,
2007-01-02,1.75, 1.60, -17.17, 2.20, 1.92, 8.35, repro,
2007-01-03,0.90, 4.09, -11.91, 2.07, 1.76, 7.65, repro,
2007-01-04,0.43, 5.02, -13.44, 1.99, 1.63, 7.27, repro,
2007-01-05,1.68, 0.27, -22.94, 2.10, 1.80, 7.84, repro,
2007-01-06,1.72, 3.07, -18.59, 2.06, 1.75, 7.66, repro,
2007-01-07,2.06, 2.30, -23.11, 2.06, 1.65, 7.42, repro,
2007-01-08,0.17, 0.37, -24.45, 2.07, 1.69, 7.50, repro,
2007-01-09,1.22, 2.20, -24.03, 2.05, 1.63, 7.23, repro,
2007-01-10,1.72, 3.03, -13.68, 2.07, 1.66, 7.33, repro,
2007-01-11,1.46, 2.61, -14.43, 2.11, 1.64, 7.41, repro,